Notices

What’s New in latest Release from January 14th 2021:

·       In Historical Hourly Data Report, users can switch between Local Standard Time (LST) and Universal Time Coordinates (UTC) time.

·       In Historical Hourly Data Report, we have an addition of a new column to display hourly precipitation data for the stations where the data are available, from 2001 onwards.

·       Expanded the Search Options of the Canadian Historical Weather Radar, users now able to select 24 hours (1 image every hour) image viewing duration.

Please note that the IDF dataset is available through this link: Intensity-Duration-Frequency (IDF) Files .

Hourly Data Report for November 23, 2020

MUSKOKA
ONTARIO
Current Station Operator: NAVCAN

44°58'29.000" N
79°18'12.000" W
281.90 m
6115529
71532
YQA

Download Data

Hourly Data (November 2020)
Hourly Data Report for November 23, 2020
TIME
LST
Temp Definition
°C
Dew Point Definition
°C
Rel Hum Definition
%
Precip. Amount Definition
mm

Wind Dir Definition
10's deg

Wind Spd Definition
km/h
Visibility Definition
km
Stn Press Definition
kPa
Hmdx Definition


Wind Chill Definition


Weather Definition


00:00 -1.9 -2.9 93 LegendMM 33 11 9.7 98.08   -6 Snow
01:00 -1.9 -2.7 94 LegendMM 32 13 6.4 98.03   -6 Snow
02:00 -2.0 -3.0 93 LegendMM 32 13 14.5 98.06   -6 Snow
03:00 -2.0 -2.8 94 LegendMM 31 13 2.8 98.13   -6 Snow
04:00 -2.0 -3.0 93 LegendMM 33 13 16.1 98.15   -6 Snow
05:00 -2.0 -3.0 93 LegendMM 33 13 12.9 98.17   -6 Snow
06:00 -3.0 -3.6 96 LegendMM 33 9 16.1 98.21   -7 LegendNANA
07:00 -2.1 -2.8 95 LegendMM 32 8 16.1 98.30   -5 LegendNANA
08:00 -1.7 -2.4 95 LegendMM   0 16.1 98.37     LegendNANA
09:00 -1.3 -2.1 94 LegendMM 34 4 16.1 98.41   -3 LegendNANA
10:00 -0.8 -1.7 94 LegendMM   0 16.1 98.42     LegendNANA
11:00 -0.4 -1.4 93 LegendMM 17 4 16.1 98.42   -2 LegendNANA
12:00 0.7 -1.4 86 LegendMM 20 5 16.1 98.38     Rain
13:00 0.8 -1.0 88 LegendMM 23 5 16.1 98.37     LegendNANA
14:00 0.6 -0.7 91 LegendMM 16 5 16.1 98.38     Rain
15:00 0.4 -0.4 94 LegendMM LegendMM 4 1.6 98.37     Fog
16:00 0.2 -0.2 97 LegendMM LegendMM 4 9.7 98.43     Rain,Fog
17:00 0.2 -0.2 97 LegendMM LegendMM 4 16.1 98.48     LegendNANA
18:00 0.2 -0.2 97 LegendMM LegendMM 4 6.4 98.59     Rain,Fog
19:00 -0.2 -0.5 98 LegendMM 31 4 12.9 98.67   -1 LegendNANA
20:00 -0.5 -0.9 97 LegendMM 31 5 12.9 98.74   -2 LegendNANA
21:00 0.4 -0.2 96 LegendMM 31 11 16.1 98.79     LegendNANA
22:00 0.3 -0.7 93 LegendMM 31 11 16.1 98.85     LegendNANA
23:00 -0.2 -1.1 94 LegendMM 32 15 16.1 98.88   -5 Snow

Notes on Data Quality.

Legend

  • E = Estimated
  • M = Missing
  • NA = Not Available*
  • [empty] = Indicates an unobserved value
Date modified: